Tracking 35048 objects as of 19-Aug-2026
HD Live streaming from Space Station
objects crossing your sky now

OPS 7898 (P/L 4)

Track OPS 7898 (P/L 4) now!
10-day predictions
OPS 7898 (P/L 4) is classified as:


NORAD ID: 5682
Int'l Code: 1971-110E
Launch date: December 14, 1971
Source: United States (US)
Launch site: AIR FORCE WESTERN TEST RANGE (AFWTR)
Your satellite tracking list
Your tracking list is empty




NASA's NSSDC Master Catalog

Two Line Element Set (TLE):
1 05682U 71110E   26231.01245606 -.00000028  00000-0  23578-4 0  9999
2 05682  69.9863 236.5530 0005466  92.7983 267.3737 13.74657498353816
Source of the keplerian elements: AFSPC